• Processing (Info)

  • MPEC 2023-Y102 : 2023 YN1

    The following Minor Planet Electronic Circular may be linked-to from your own Web pages, but must not otherwise be redistributed electronically.

    A form allowing access to any MPEC is at the bottom of this page.


    Read MPEC 2023-Y101 Read MPEC 2023-Y103


    M.P.E.C. 2023-Y102                            Issued 2023 December 30, 04:13 UT
    
         The Minor Planet Electronic Circulars contain information on unusual
             minor planets, routine data on comets and natural satellites,
             and occasional editorial announcements.  They are published
        on behalf of Division F of the International Astronomical Union by the
              Minor Planet Center, Smithsonian Astrophysical Observatory,
                              Cambridge, MA 02138, U.S.A.
    			  
                 Prepared using the Tamkin Foundation Computer Network
    
                                  MPC@CFA.HARVARD.EDU
                URL https://www.minorplanetcenter.net/    ISSN 1523-6714
    
                                    2023 YN1                                 
    
    
    Observations:
         K23Y01N  C2023 09 18.47838202 05 25.085-29 35 44.49         22.88GVEY102F52
         K23Y01N  C2023 09 18.48865802 05 25.212-29 35 54.52         22.50GVEY102F52
         K23Y01N  C2023 09 18.49889902 05 25.356-29 36 05.02         23.19GVEY102F52
         K23Y01N  C2023 09 18.50914202 05 25.555-29 36 16.18         23.18GVEY102F52
         K23Y01N  C2023 10 07.43691902 05 43.261-34 34 54.50         22.10GVEY102F52
         K23Y01N  C2023 10 07.45635602 05 42.772-34 35 10.34         22.08GVEY102F52
         K23Y01N  C2023 10 07.46613102 05 42.510-34 35 18.50         22.18GVEY102F52
         K23Y01N  C2023 12 07.30937301 41 01.899-23 00 39.08         22.59GVEY102F52
         K23Y01N  C2023 12 07.32102601 41 02.173-23 00 10.75         21.36GVEY102F52
         K23Y01N  C2023 12 10.22460701 42 54.736-20 59 01.87         21.38GVEY102F52
         K23Y01N  C2023 12 10.25948701 42 55.988-20 57 32.66         21.98GVEY102F52
         K23Y01N* S2023 12 19.62465 01 51 57.99 -13 42 04.0          19   RLEY102C51
         K23Y01N  s2023 12 19.62465 1 + 5999.5599 + 2908.4298 - 1336.8658   EY102C51
         K23Y01N  S2023 12 19.62478 01 51 58.36 -13 42 05.3                LEY102C51
         K23Y01N  s2023 12 19.62478 1 + 6018.4942 + 2905.6090 - 1254.8463   EY102C51
         K23Y01N  S2023 12 19.68934 01 52 03.10 -13 38 53.9                LEY102C51
         K23Y01N  s2023 12 19.68934 1 + 6015.4743 + 2912.3491 - 1254.5637   EY102C51
         K23Y01N  S2023 12 19.81846 01 52 12.46 -13 32 29.0                LEY102C51
         K23Y01N  s2023 12 19.81846 1 + 6008.7303 + 2925.8485 - 1255.2552   EY102C51
         K23Y01N  S2023 12 20.01214 01 52 26.74 -13 22 49.9                LEY102C51
         K23Y01N  s2023 12 20.01214 1 + 5998.5879 + 2946.0664 - 1256.1720   EY102C51
         K23Y01N  S2023 12 20.14139 01 52 36.22 -13 16 23.2                LEY102C51
         K23Y01N  s2023 12 20.14139 1 + 6009.9443 + 2956.4131 - 1174.1457   EY102C51
         K23Y01N  S2023 12 20.20595 01 52 40.96 -13 13 08.6                LEY102C51
         K23Y01N  s2023 12 20.20595 1 + 6006.6097 + 2963.1437 - 1174.1148   EY102C51
         K23Y01N  S2023 12 20.33507 01 52 50.50 -13 06 39.8                LEY102C51
         K23Y01N  s2023 12 20.33507 1 + 5999.9828 + 2976.5881 - 1173.7911   EY102C51
         K23Y01N  S2023 12 20.59331 01 53 09.85 -12 53 43.7                LEY102C51
         K23Y01N  s2023 12 20.59331 1 + 5986.8630 + 3003.3857 - 1172.0534   EY102C51
         K23Y01N  S2023 12 20.72256 01 53 19.73 -12 47 16.1                LEY102C51
         K23Y01N  s2023 12 20.72256 1 + 5997.5083 + 3013.3408 - 1088.2329   EY102C51
         K23Y01N  S2023 12 21.10992 01 53 49.27 -12 27 44.8                LEY102C51
         K23Y01N  s2023 12 21.10992 1 + 5978.2651 + 3053.3233 - 1081.8630   EY102C51
         K23Y01N  S2023 12 21.11005 01 53 49.25 -12 27 44.9                LEY102C51
         K23Y01N  s2023 12 21.11005 1 + 5994.4356 + 3049.5297 -  999.2532   EY102C51
         K23Y01N  C2023 12 30.05030002 07 14.53 -04 38 50.8          21.0 VWEY102X09
         K23Y01N  C2023 12 30.05729702 07 15.22 -04 38 27.4                WEY102X09
         K23Y01N  C2023 12 30.06429302 07 15.95 -04 38 05.3                WEY102X09
    
    Observer details:
    C51 WISE.  Observer Near-Earth Object Wide-field Infrared Survey Explorer.
        Measurers A. K. Mainzer, J. M. Bauer, T. Grav, J. R. Masiero, R. M. Cutri,
        J. W. Dailey, Y. G. Kwon, J. Pittichova, E. L. Wright.
    F52 Pan-STARRS 2, Haleakala.  Observers J. Herman, T. Lowe, P. Minguez, A.
        Schultz, I. Smith.  Measurers K. Chambers, T. de Boer, J. Fairlamb, H.
        Gao, M. Huber, C.-C. Lin, E. Magnier, Y. Ramanjooloo, R. Wainscoat, R.
        Weryk.  1.8-m Ritchey-Chretien + CCD.
    X09 Deep Random Survey, Rio Hurtado.  Observers A. Schnabel, D. Ruhela.
        Measurer S. Deen.  0.43-m reflector + CMOS.
    
    Orbital elements:
    2023 YN1                                                 Earth MOID = 0.2859 AU
    Epoch 2023 Sept. 13.0 TT = JDT 2460200.5                Veres                   
    M 340.45236              (2000.0)            P               Q                  
    n   0.17332209     Peri.  342.26607     +0.18249167     -0.93098258             
    a   3.1859095      Node    96.30118     +0.93622568     +0.06632316             
    e   0.6045623      Incl.   18.54801     +0.30029696     +0.35898840             
    P   5.69           H   20.84          G   0.15           U   4                  
    Residuals in seconds of arc
    230918 F52  0.5+  0.4-    231210 F52  0.1+  0.1-    231220 C51  1.1-  1.5+
    230918 F52  0.0   0.2+    231210 F52  0.2-  0.4-    231220 C51  1.4-  1.2+
    230918 F52  0.4-  0.3+    231219 C51  5.0-  1.2+    231220 C51  0.2+  0.5-
    230918 F52  0.1+  0.3-    231219 C51  0.3+  0.2-    231221 C51  0.5-  0.3+
    231007 F52  0.1+  0.3+    231219 C51  1.1+  1.2-    231221 C51  0.9-  0.0
    231007 F52  0.1+  0.0     231219 C51  0.4+  1.4-    231230 X09  0.0   0.0
    231007 F52  0.1-  0.4-    231220 C51  1.5+  1.0-    231230 X09  0.2+  0.7+
    231207 F52  0.3+  0.2+    231220 C51  0.6+  1.0-    231230 X09  0.9+  0.1+
    231207 F52  0.2-  0.2+    231220 C51  0.1-  0.1+
    
    Ephemeris:
    2023 YN1                 a,e,i = 3.19, 0.60, 19                  q = 1.2598
    Date    TT    R. A. (2000) Decl.     Delta      r    Elong.  Phase     V
    2023 11 30    01 38 16.8 -27 32 15   0.5436  1.3254   117.1    41.5    21.8
    ...
    2023 12 15    01 46 56.1 -17 24 53   0.5250  1.2816   112.6    45.1    21.7
    ...
    2023 12 23    01 56 20.1 -10 51 28   0.5234  1.2677   110.8    46.5    21.7
    ...
    2023 12 29    02 05 28.1 -05 35 31   0.5269  1.2618   109.6    47.2    21.7
    2023 12 30    02 07 09.5 -04 41 43   0.5280  1.2612   109.4    47.3    21.7
    2023 12 31    02 08 53.7 -03 47 42   0.5291  1.2607   109.2    47.4    21.7
    ...
    2024 01 06    02 20 17.1 +01 39 06   0.5392  1.2601   108.1    47.9    21.8
    ...
    2024 01 14    02 38 00.8 +08 50 38   0.5610  1.2657   106.9    48.0    21.9
    ...
    2024 01 29    03 18 38.3 +21 05 04   0.6290  1.2950   104.6    47.4    22.2
    
    M. P. C. Staff               (C) Copyright 2023 MPC           M.P.E.C. 2023-Y102
    


    Read MPEC 2023-Y101 Read MPEC 2023-Y103


    MPEC number:

    Enter an MPEC number in one of the following forms:

    • 1997-B01 (the full form)
    • J97B01 (the packed version of the full form)
    • B01 (the abbreviated form)